Content
SEND FEEDBACK

Daily
Averages
Monthly
Summary
United States of America

LEISURE CITY, FLORIDA


Home > North America > United States > Florida
Elevation: 0 feet     Latitude: 25 30N     Longitude: 080 30W

WEATHER
 
SELECT A DAY
Number of Records: 199,603;   Date Range: 1/3/95 - 7/26/14
 
SHARE

PRINT THIS DATA

[ ← Previous Day ]
WEATHER ALMANAC - MARCH 29, 2014
[ Next Day → ]
[ °C ]   °F
Weather ElementAverageHighLow
Temperature74.9 °F82.4 °F (2:58 pm)68.2 °F (11:58 pm)
Dewpoint70.4 °F75.2 °F (3:58 pm)64.4 °F (10:03 pm)
Humidity86 %100 % (7:58 am)76 % (10:58 am)
Barometer30.02 in30.08 in (7:58 am)29.96 in (10:58 pm)
Wind Speed12.2 mph27.6 mph (9:28 pm)
Wind Gust39.1 mph (9:33 pm)
Weather ElementAverage
Visibility9.1 mi
Wind DirectionSSW (215.5 °)

Weather ElementTotal
Precipitation0.36 in
Cooling Degree Days10.3 (Base 65)
Growing Degree Days25.3 (Base 50)
Averaged from 33 records on March 29, 2014
WEATHER CONDITIONS BREAKOUT
WIND DIRECTION BREAKOUT
WEATHER BY HOUR - MARCH 29, 2014
[ °C ]   °F
Local TimeTemperatureDewpointHumidityBarometerVisibilityWind DirectionWind SpeedGust SpeedPrecipitationEventsConditions
1:58 AM74.8 °F70.9 °F87 %30.07 in10.0 miSE (140°)10.4 mphClear
2:58 AM74.8 °F71.2 °F88 %30.05 in10.0 miSE (140°)8.1 mphClear
3:58 AM74.7 °F71.6 °F90 %30.02 in10.0 miSE (130°)10.4 mphClear
4:58 AM74.8 °F72.7 °F93 %30.04 in10.0 miSSE (150°)5.8 mphClear
5:58 AM73.9 °F72.9 °F96 %30.05 in10.0 miSSE (160°)4.6 mphClear
6:58 AM73.8 °F73.4 °F99 %30.06 in10.0 miSSE (160°)4.6 mphClear
7:58 AM74.3 °F74.3 °F100 %30.08 in10.0 miSSE (160°)4.6 mphClear
8:58 AM76.3 °F74.3 °F94 %30.08 in10.0 miSSE (150°)10.4 mphClear
9:58 AM78.1 °F73.0 °F84 %30.08 in10.0 miSSE (160°)9.2 mphClear
10:58 AM80.8 °F72.7 °F76 %30.06 in10.0 miSouth (170°)16.1 mph20.7 mphPartly Cloudy
11:58 AM81.3 °F73.6 °F77 %30.03 in10.0 miSouth (170°)21.9 mph29.9 mphClear
12:58 PM81.7 °F74.3 °F78 %30.01 in10.0 miSouth (170°)17.3 mph27.6 mphPartly Cloudy
1:58 PM81.9 °F74.3 °F78 %30.01 in10.0 miSouth (180°)15.0 mphScattered Clouds
2:58 PM82.4 °F74.5 °F77 %29.99 in10.0 miSouth (180°)13.8 mph21.9 mphPartly Cloudy
3:58 PM82.2 °F75.2 °F79 %29.99 in10.0 miSouth (190°)12.7 mphClear
4:58 PM80.6 °F74.8 °F83 %29.99 in10.0 miSSW (210°)10.4 mphClear
5:58 PM79.3 °F73.6 °F82 %29.98 in10.0 miSouth (190°)10.4 mphClear
6:58 PM78.3 °F73.2 °F84 %29.98 in10.0 miSSW (210°)5.8 mphClear
7:58 PM76.5 °F72.3 °F87 %30.00 in10.0 miSW (230°)3.5 mphClear
8:58 PM77.9 °F73.0 °F85 %30.02 in10.0 miNW (320°)20.7 mph25.3 mphScattered Clouds
9:03 PM75.2 °F68.0 °F78 %30.01 in10.0 miNW (320°)18.4 mph25.3 mphLight Drizzle
9:28 PM71.6 °F66.2 °F83 %30.03 in1.5 miWNW (290°)27.6 mph35.7 mphRainHeavy Rain
9:33 PM71.6 °F66.2 °F83 %30.04 in1.0 miWNW (290°)21.9 mph39.1 mphRainHeavy Rain
9:38 PM69.8 °F66.2 °F88 %30.04 in1.8 miWNW (290°)21.9 mph39.1 mphRainHeavy Rain
9:43 PM69.8 °F66.2 °F88 %30.03 in6.0 miNW (310°)17.3 mph29.9 mphRainLight Rain
9:48 PM69.8 °F66.2 °F88 %30.02 in9.0 miNW (310°)17.3 mph26.5 mphRainLight Rain
9:53 PM69.8 °F66.2 °F88 %30.02 in10.0 miNW (310°)15.0 mph21.9 mphRainLight Rain
9:58 PM70.5 °F65.5 °F84 %30.03 in10.0 miNW (310°)11.5 mph21.9 mph0.34 inRainLight Rain
10:03 PM69.8 °F64.4 °F83 %30.01 in10.0 miNW (310°)10.4 mphRainLight Rain
10:08 PM69.8 °F64.4 °F83 %30.00 in10.0 miWNW (300°)8.1 mphRainLight Rain
10:34 PM69.8 °F66.2 °F88 %29.97 in10.0 miSSE (150°)5.8 mphPartly Cloudy
10:58 PM69.1 °F66.6 °F92 %29.96 in10.0 miSSE (160°)6.9 mph0.02 inClear
11:58 PM68.2 °F66.7 °F95 %29.98 in10.0 miSouth (190°)5.8 mphPartly Cloudy
Hourly data recorded from KHST, located miles away from Leisure City, Florida







STORIES FROM OUR PARTNERS